Home   Weather   Wilmington   Past weeks

Flag for USA Past Weather in Wilmington, Delaware, USA — Yesterday and Last 2 Weeks

Now
59 °F

Sunny.


Feels Like: 60 °F
Forecast: 56 / 70 °F
Wind: 3 mph from West

Location: New Castle County Airport

Current Time: May 27, 2017 at 8:03:27 am

Latest Report: May 27, 2017 at 6:51 am


Visibility: 10 mi

Pressure: 29.90 "Hg

Humidity: 84%

Dew Point: 54 °F

Location of WilmingtonLocation

Past Weather in Wilmington — Graph

°F

Wilmington Temperature Yesterday

Maximum temperature yesterday: 75 °F (at 1:51 pm)
Minimum temperature yesterday: 58 °F (at 12:18 am)
Average temperature yesterday: 65 °F

High & Low Weather Summary for the Past Weeks

 TemperatureHumidityPressure
High91 °F (May 18, 3:51 pm)100% (May 13, 8:00 am)30.36 "Hg (May 13, 8:00 am)
Low45 °F (May 14, 4:51 am)30% (May 14, 10:51 pm)29.44 "Hg (May 25, 6:51 pm)
Average63 °F75%29.89 "Hg
* Reported May 12 6:51 am — May 27 6:51 am, Wilmington. Weather by CustomWeather, © 2017

Note: Actual official high and low records may vary slightly from our data, if they occured in-between our weather recording intervals... More about our weather records

Advertising

Wilmington Weather History for the Previous 24 Hours

Scroll right to see more
 ConditionsComfort  
Time TempWeatherWind HumidityBarometerVisibility
6:51 am
Sat, May 27
59 °FSunny.3 mph84%29.90 "Hg10 mi
5:51 am54 °FSunny.3 mph93%29.91 "Hg10 mi
4:51 am54 °FClear.6 mph90%29.90 "Hg10 mi
3:51 am56 °FClear.No wind90%29.90 "Hg10 mi
2:51 am58 °FClear.6 mph84%29.88 "Hg10 mi
1:51 am59 °FClear.6 mph78%29.88 "Hg10 mi
12:51 am61 °FClear.7 mph72%29.88 "Hg10 mi
11:51 pm
Fri, May 26
60 °FClear.7 mph78%29.87 "Hg10 mi
10:51 pm64 °FPassing clouds.8 mph70%29.87 "Hg10 mi
9:51 pm66 °FOvercast.9 mph68%29.85 "Hg10 mi
8:51 pm67 °FPassing clouds.13 mph66%29.82 "Hg10 mi
7:51 pm70 °FOvercast.15 mph59%29.80 "Hg10 mi
6:51 pm72 °FOvercast.18 mph59%29.77 "Hg10 mi
5:51 pm70 °FLight rain. Mostly cloudy.18 mph61%29.75 "Hg10 mi
4:51 pm71 °FMostly cloudy.9 mph59%29.72 "Hg10 mi
3:51 pm73 °FCloudy.18 mph55%29.70 "Hg10 mi
2:51 pm75 °FCloudy.18 mph52%29.69 "Hg10 mi
1:51 pm75 °FMostly cloudy.14 mph58%29.68 "Hg10 mi
12:51 pm74 °FPartly sunny.13 mph60%29.68 "Hg10 mi
10:51 am71 °FPartly sunny.13 mph63%29.68 "Hg10 mi
9:51 am69 °FPartly sunny.16 mph68%29.68 "Hg10 mi
8:51 am66 °FSunny.10 mph78%29.67 "Hg10 mi
Weather by CustomWeather, © 2017

See weather overviewHow to use our weather pages